Total_Precipitation_Accumulation
0.01 0.00 0.00 0.01 0.00 0.00 0.00 0.00 0.00 0.00 0.00 0.00 0.00 0.00 0.00 0.00 0.00 0.00 0.00 0.00 0.01 0.02 0.02 0.01 0.00 0.00 0.00 0.00 0.00 0.00 0.00 0.00 0.00 0.00 0.00 0.00 0.00 0.00 0.00 0.00 0.00 0.00 0.00 0.00
0.01 0.00 0.01 0.01 0.01 0.00 0.00 0.00 0.00 0.00 0.00 0.00 0.00 0.00 0.00 0.00 0.00 0.00 0.01 0.01 0.02 0.01 0.00 0.00 0.00 0.00 0.00 0.00 0.00 0.00 0.00 0.00 0.00 0.00 0.00 0.00 0.00 0.00 0.00 0.00 0.00 0.00 0.00 0.00
0.01 0.01 0.01 0.02 0.00 0.00 0.00 0.00 0.00 0.00 0.00 0.00 0.00 0.00 0.00 0.01 0.01 0.00 0.01 0.00 0.01 0.02 0.01 0.01 0.00 0.00 0.00 0.00 0.00 0.00 0.00 0.00 0.00 0.00 0.00 0.00 0.00 0.00 0.00 0.00 0.00 0.00 0.00 0.00
0.02 0.02 0.02 0.04 0.03 0.00 0.00 0.00 0.00 0.00 0.00 0.00 0.00 0.00 0.00 0.00 0.01 0.01 0.01 0.01 0.01 0.02 0.02 0.01 0.01 0.00 0.00 0.00 0.00 0.00 0.00 0.00 0.00 0.00 0.00 0.00 0.00 0.00 0.00 0.00 0.00 0.00 0.00 0.00
0.03 0.03 0.05 0.09 0.09 0.01 0.00 0.00 0.00 0.00 0.00 0.00 0.00 0.00 0.00 0.00 0.00 0.00 0.01 0.02 0.01 0.01 0.02 0.03 0.00 0.00 0.01 0.01 0.00 0.00 0.00 0.00 0.00 0.00 0.00 0.00 0.00 0.00 0.00 0.00 0.00 0.00 0.00 0.00
0.05 0.05 0.05 0.07 0.14 0.09 0.02 0.00 0.00 0.00 0.00 0.00 0.00 0.00 0.01 0.01 0.02 0.01 0.01 0.01 0.01 0.02 0.02 0.01 0.01 0.01 0.01 0.00 0.01 0.02 0.04 0.02 0.01 0.00 0.00 0.00 0.00 0.00 0.00 0.00 0.00 0.00 0.00 0.00
0.05 0.06 0.07 0.09 0.19 0.15 0.04 0.03 0.02 0.01 0.02 0.00 0.00 0.00 0.00 0.01 0.01 0.02 0.02 0.02 0.02 0.02 0.02 0.02 0.03 0.03 0.02 0.03 0.02 0.02 0.04 0.05 0.07 0.04 0.01 0.03 0.00 0.00 0.00 0.00 0.00 0.00 0.00 0.00
0.06 0.05 0.06 0.09 0.17 0.24 0.12 0.06 0.06 0.11 0.11 0.03 0.02 0.01 0.01 0.00 0.00 0.00 0.01 0.01 0.01 0.01 0.02 0.04 0.03 0.04 0.06 0.04 0.08 0.10 0.06 0.06 0.07 0.05 0.03 0.01 0.00 0.00 0.00 0.00 0.00 0.00 0.00 0.00
0.05 0.05 0.07 0.10 0.17 0.30 0.31 0.17 0.18 0.23 0.18 0.06 0.01 0.02 0.01 0.01 0.01 0.01 0.00 0.00 0.00 0.00 0.02 0.02 0.01 0.01 0.02 0.02 0.03 0.10 0.21 0.20 0.17 0.09 0.08 0.01 0.00 0.00 0.00 0.00 0.00 0.00 0.00 0.00
0.09 0.08 0.09 0.11 0.16 0.28 0.33 0.14 0.15 0.31 0.31 0.07 0.01 0.04 0.03 0.01 0.01 0.03 0.00 0.00 0.00 0.01 0.03 0.02 0.00 0.00 0.00 0.00 0.00 0.04 0.16 0.20 0.18 0.09 0.15 0.02 0.00 0.00 0.00 0.00 0.00 0.00 0.00 0.00
0.12 0.10 0.11 0.12 0.15 0.27 0.45 0.24 0.17 0.33 0.43 0.18 0.03 0.02 0.05 0.05 0.05 0.10 0.10 0.12 0.04 0.01 0.01 0.01 0.00 0.00 0.00 0.00 0.00 0.00 0.02 0.03 0.04 0.06 0.10 0.02 0.00 0.00 0.00 0.00 0.00 0.00 0.00 0.00
0.16 0.15 0.14 0.17 0.21 0.31 0.52 0.39 0.20 0.28 0.49 0.35 0.11 0.04 0.03 0.06 0.11 0.25 0.25 0.08 0.01 0.00 0.01 0.01 0.01 0.00 0.00 0.00 0.00 0.00 0.00 0.00 0.00 0.00 0.00 0.00 0.00 0.00 0.00 0.00 0.00 0.00 0.00 0.00
0.19 0.19 0.19 0.20 0.24 0.33 0.56 0.37 0.27 0.38 0.55 0.31 0.11 0.02 0.00 0.01 0.03 0.04 0.16 0.05 0.01 0.01 0.00 0.01 0.02 0.02 0.00 0.00 0.00 0.00 0.00 0.00 0.00 0.00 0.00 0.00 0.00 0.00 0.00 0.00 0.00 0.00 0.00 0.00
0.27 0.25 0.24 0.25 0.29 0.39 0.65 0.49 0.26 0.29 0.61 0.48 0.16 0.03 0.03 0.03 0.05 0.09 0.13 0.12 0.11 0.12 0.09 0.11 0.08 0.02 0.00 0.00 0.00 0.00 0.00 0.00 0.00 0.00 0.00 0.01 0.01 0.00 0.00 0.00 0.00 0.00 0.00 0.00
0.35 0.34 0.31 0.29 0.32 0.40 0.61 0.53 0.31 0.19 0.44 0.71 0.28 0.08 0.05 0.05 0.08 0.11 0.11 0.13 0.19 0.19 0.20 0.17 0.07 0.02 0.05 0.05 0.01 0.00 0.02 0.04 0.01 0.00 0.00 0.00 0.00 0.00 0.00 0.00 0.00 0.00 0.00 0.00
0.32 0.37 0.37 0.37 0.41 0.58 0.96 1.11 0.54 0.20 0.34 0.85 0.58 0.20 0.03 0.03 0.04 0.05 0.11 0.15 0.21 0.27 0.23 0.17 0.09 0.02 0.09 0.19 0.03 0.00 0.07 0.08 0.01 0.00 0.00 0.00 0.00 0.00 0.00 0.00 0.00 0.00 0.00 0.00
0.31 0.38 0.44 0.46 0.50 0.71 0.73 0.63 0.31 0.20 0.35 0.83 0.82 0.47 0.11 0.06 0.07 0.10 0.15 0.23 0.35 0.35 0.38 0.26 0.11 0.07 0.23 0.21 0.01 0.00 0.02 0.01 0.00 0.00 0.00 0.00 0.00 0.00 0.00 0.00 0.00 0.00 0.00 0.00
0.28 0.40 0.49 0.48 0.68 0.81 0.75 0.59 0.38 0.32 0.52 0.68 0.73 0.35 0.07 0.05 0.07 0.12 0.17 0.25 0.31 0.34 0.30 0.17 0.05 0.12 0.23 0.08 0.00 0.00 0.00 0.00 0.00 0.00 0.00 0.00 0.00 0.00 0.00 0.00 0.00 0.00 0.00 0.00
0.34 0.46 0.64 1.04 1.54 1.47 1.05 0.65 0.62 0.54 0.58 0.58 0.38 0.09 0.04 0.03 0.05 0.07 0.12 0.16 0.21 0.25 0.20 0.09 0.08 0.10 0.05 0.01 0.00 0.00 0.00 0.00 0.00 0.00 0.00 0.00 0.00 0.00 0.00 0.00 0.00 0.00 0.00 0.00
0.36 0.68 1.23 1.50 1.37 0.73 0.54 0.81 0.90 0.99 0.96 0.68 0.37 0.08 0.04 0.04 0.05 0.11 0.16 0.17 0.16 0.16 0.05 0.06 0.11 0.03 0.01 0.01 0.00 0.00 0.00 0.00 0.00 0.00 0.00 0.00 0.00 0.00 0.00 0.00 0.00 0.00 0.00 0.00
0.62 0.81 0.79 0.74 0.60 0.52 0.75 0.83 0.69 0.52 0.31 0.22 0.13 0.06 0.08 0.07 0.12 0.15 0.21 0.23 0.17 0.11 0.03 0.06 0.03 0.01 0.00 0.00 0.00 0.00 0.00 0.00 0.00 0.00 0.01 0.01 0.00 0.00 0.00 0.00 0.00 0.00 0.00 0.00
0.32 0.37 0.44 0.58 0.51 0.52 0.55 0.46 0.28 0.16 0.06 0.05 0.05 0.04 0.05 0.11 0.14 0.24 0.36 0.31 0.26 0.14 0.05 0.04 0.01 0.01 0.01 0.00 0.00 0.00 0.00 0.00 0.00 0.00 0.01 0.01 0.00 0.00 0.00 0.00 0.00 0.00 0.00 0.00
0.51 0.57 0.54 0.42 0.40 0.36 0.27 0.14 0.05 0.01 0.01 0.02 0.03 0.06 0.11 0.14 0.19 0.34 0.32 0.25 0.17 0.06 0.05 0.02 0.01 0.01 0.01 0.01 0.01 0.00 0.00 0.00 0.00 0.00 0.00 0.00 0.00 0.00 0.00 0.00 0.00 0.00 0.00 0.00
0.46 0.37 0.40 0.24 0.22 0.07 0.03 0.01 0.00 0.00 0.00 0.02 0.05 0.09 0.15 0.13 0.23 0.37 0.27 0.23 0.12 0.08 0.02 0.00 0.02 0.04 0.04 0.03 0.02 0.01 0.01 0.01 0.00 0.00 0.00 0.00 0.00 0.00 0.00 0.00 0.00 0.00 0.00 0.00
0.31 0.25 0.18 0.13 0.02 0.01 0.03 0.02 0.02 0.04 0.04 0.07 0.12 0.15 0.14 0.15 0.35 0.26 0.18 0.18 0.06 0.02 0.01 0.04 0.07 0.08 0.05 0.03 0.02 0.03 0.04 0.04 0.04 0.03 0.02 0.01 0.01 0.00 0.00 0.00 0.00 0.00 0.00 0.00
0.27 0.18 0.10 0.03 0.00 0.02 0.03 0.01 0.03 0.07 0.12 0.18 0.23 0.22 0.26 0.25 0.23 0.14 0.06 0.05 0.02 0.05 0.10 0.12 0.11 0.08 0.06 0.06 0.06 0.06 0.06 0.05 0.05 0.06 0.06 0.05 0.05 0.04 0.04 0.02 0.01 0.01 0.01 0.00
0.40 0.11 0.01 0.01 0.04 0.07 0.04 0.04 0.10 0.14 0.14 0.18 0.26 0.28 0.23 0.27 0.16 0.06 0.04 0.04 0.07 0.13 0.13 0.12 0.13 0.12 0.11 0.10 0.09 0.09 0.08 0.08 0.08 0.08 0.08 0.08 0.08 0.06 0.05 0.04 0.03 0.02 0.02 0.02